EW1134 Weather Reports


Display with metric or nautical units.
time (UTC)temp
F
wind
direction
speed
MPH
gust
MPH
rain 1hr
in
rain 24hr
in
rain mn
in
humidity
%
barometer
mb
20200329221004 46 352 0.0 2.0 0.00 0.00 0.00 82 1013.7
20200329220504 46 119 0.0 2.0 0.00 0.00 0.00 82 1013.9
20200329220000 46 109 1.0 3.0 0.00 0.00 0.00 82 1013.9
20200329215500 46 142 1.0 3.0 0.00 0.00 0.00 82 1013.9
20200329215000 46 181 0.0 3.0 0.00 0.00 0.00 82 1013.9
20200329214500 47 1 0.0 2.0 0.00 0.00 0.00 81 1013.9
20200329214000 47 190 0.0 3.0 0.00 0.00 0.00 81 1014.0
20200329213500 47 188 0.0 3.0 0.00 0.00 0.00 81 1014.0
20200329213000 47 264 0.0 2.0 0.00 0.00 0.00 80 1014.0
20200329212500 47 314 0.0 2.0 0.00 0.00 0.00 80 1013.9
20200329211959 47 1 0.0 3.0 0.00 0.00 0.00 80 1013.9
20200329211501 47 21 0.0 3.0 0.00 0.00 0.00 80 1013.9
20200329211000 48 210 1.0 4.0 0.00 0.00 0.00 80 1014.2
20200329210500 48 216 2.0 6.0 0.00 0.00 0.00 80 1014.1
20200329210001 48 222 3.0 6.0 0.00 0.00 0.00 80 1014.1
20200329205500 48 229 2.0 6.0 0.00 0.00 0.00 80 1014.2
20200329205000 49 226 2.0 4.0 0.00 0.00 0.00 81 1014.0
20200329204501 49 217 2.0 4.0 0.00 0.00 0.00 81 1013.9
20200329204000 48 208 1.0 4.0 0.00 0.00 0.00 81 1014.1
20200329203500 48 213 1.0 3.0 0.00 0.00 0.00 81 1013.9
20200329203000 48 255 1.0 3.0 0.00 0.00 0.00 80 1013.9
20200329202500 48 322 1.0 4.0 0.00 0.00 0.00 80 1013.9
20200329201959 48 268 1.0 4.0 0.00 0.00 0.00 80 1014.0
20200329201501 48 229 2.0 5.0 0.00 0.00 0.00 79 1014.1
20200329201000 48 230 3.0 6.0 0.00 0.00 0.00 79 1014.3
20200329200459 49 236 3.0 6.0 0.00 0.00 0.00 80 1014.3
20200329200001 49 235 2.0 6.0 0.00 0.00 0.00 80 1014.2
20200329195500 49 248 2.0 5.0 0.00 0.00 0.00 80 1014.2
20200329195000 48 266 1.0 5.0 0.00 0.00 0.00 79 1013.9
20200329194502 48 265 1.0 4.0 0.00 0.00 0.00 79 1013.7
20200329194000 49 248 0.0 2.0 0.00 0.00 0.00 78 1013.5
20200329193500 49 270 0.0 1.0 0.00 0.00 0.00 78 1013.6
20200329193001 49 270 0.0 4.0 0.00 0.00 0.00 78 1013.5
20200329192500 49 282 0.0 4.0 0.00 0.00 0.00 78 1013.4
20200329191959 49 298 0.0 2.0 0.00 0.00 0.00 78 1013.4
20200329191501 50 257 1.0 3.0 0.00 0.00 0.00 77 1013.4
20200329191000 50 235 2.0 5.0 0.00 0.00 0.00 77 1013.4
20200329190500 50 233 2.0 5.0 0.00 0.00 0.00 77 1013.4
20200329190001 50 230 1.0 4.0 0.00 0.00 0.00 77 1013.3
20200329185500 50 235 0.0 3.0 0.00 0.00 0.00 76 1013.4
20200329185000 51 239 1.0 4.0 0.00 0.00 0.00 76 1013.2
20200329184501 51 226 1.0 4.0 0.00 0.00 0.00 75 1013.2
20200329184000 51 225 1.0 4.0 0.00 0.00 0.00 75 1013.1
20200329183500 51 253 1.0 4.0 0.00 0.00 0.00 75 1013.1
20200329183000 51 245 1.0 5.0 0.00 0.00 0.00 74 1012.9
20200329182500 52 215 2.0 5.0 0.00 0.00 0.00 73 1012.9
20200329181959 52 201 1.0 5.0 0.00 0.00 0.00 73 1012.9
20200329181500 52 186 1.0 5.0 0.00 0.00 0.00 72 1012.9
20200329181000 52 213 2.0 6.0 0.00 0.00 0.00 72 1013.0
20200329180459 53 225 3.0 6.0 0.00 0.00 0.00 71 1013.0
20200329180000 53 223 3.0 6.0 0.00 0.00 0.00 70 1012.8
20200329175500 53 223 2.0 5.0 0.00 0.00 0.00 70 1012.7
20200329175000 54 225 2.0 5.0 0.00 0.00 0.00 70 1012.5
20200329174501 54 224 2.0 5.0 0.00 0.00 0.00 69 1012.6
20200329174000 54 226 1.0 4.0 0.00 0.00 0.00 67 1012.6
20200329173500 54 10 0.0 1.0 0.00 0.00 0.00 66 1012.4
20200329173001 55 92 0.0 2.0 0.00 0.00 0.00 66 1012.3
20200329172500 55 156 1.0 4.0 0.00 0.00 0.00 66 1012.4
20200329172000 55 190 2.0 4.0 0.00 0.00 0.00 65 1012.1
20200329171500 55 170 1.0 4.0 0.00 0.00 0.00 65 1012.1
20200329170959 56 91 1.0 4.0 0.00 0.00 0.00 64 1012.1
20200329170500 56 25 1.0 4.0 0.00 0.00 0.00 63 1012.0
20200329170001 57 334 0.0 3.0 0.00 0.00 0.00 62 1012.0
20200329165500 57 5 0.0 2.0 0.00 0.00 0.00 61 1011.9
20200329165000 57 16 0.0 2.0 0.00 0.00 0.00 61 1011.8
20200329164501 58 338 0.0 3.0 0.00 0.00 0.00 60 1011.9
20200329164000 58 353 0.0 3.0 0.00 0.00 0.00 59 1011.9
20200329163500 58 354 1.0 3.0 0.00 0.00 0.00 59 1011.8
20200329163002 58 330 1.0 3.0 0.00 0.00 0.00 59 1011.9
20200329162500 58 317 1.0 6.0 0.00 0.00 0.00 58 1012.0
20200329162000 58 326 3.0 6.0 0.00 0.00 0.00 58 1011.9
20200329161501 59 335 3.0 7.0 0.00 0.00 0.00 58 1011.8
20200329161000 59 330 3.0 7.0 0.00 0.00 0.00 57 1011.7
20200329160500 59 337 3.0 7.0 0.00 0.00 0.00 57 1011.7
20200329160001 59 341 4.0 8.0 0.00 0.00 0.00 56 1011.8
20200329155500 59 334 4.0 8.0 0.00 0.00 0.00 56 1011.8
20200329155000 59 331 4.0 10.0 0.00 0.00 0.00 55 1011.6
20200329154501 59 333 4.0 10.0 0.00 0.00 0.00 55 1011.6
20200329154000 60 348 4.0 10.0 0.00 0.00 0.00 55 1011.6
20200329153500 60 7 4.0 8.0 0.00 0.00 0.00 55 1011.6
20200329153001 60 350 4.0 11.0 0.00 0.00 0.00 54 1011.6
20200329152500 60 347 5.0 11.0 0.00 0.00 0.00 54 1011.5
20200329152000 60 346 6.0 13.0 0.00 0.00 0.00 54 1011.6
20200329151501 60 341 5.0 13.0 0.00 0.00 0.00 53 1011.6
20200329151000 60 342 6.0 13.0 0.00 0.00 0.00 54 1011.6
20200329150500 60 338 7.0 15.0 0.00 0.00 0.00 54 1011.5
20200329150001 59 328 7.0 15.0 0.00 0.00 0.00 54 1011.5
20200329145500 59 328 6.0 15.0 0.00 0.00 0.00 54 1011.5
20200329145000 59 347 6.0 13.0 0.00 0.00 0.00 56 1011.4
20200329144501 59 339 5.0 12.0 0.00 0.00 0.00 56 1011.4
20200329144000 59 343 3.0 8.0 0.00 0.00 0.00 59 1011.4
20200329143459 59 7 4.0 10.0 0.00 0.00 0.00 59 1011.4
20200329143000 59 18 4.0 11.0 0.00 0.00 0.00 58 1011.3
20200329142500 59 28 5.0 11.0 0.00 0.00 0.00 58 1011.4
20200329142000 59 18 5.0 13.0 0.00 0.00 0.00 58 1011.3
20200329141501 59 16 6.0 13.0 0.00 0.00 0.00 58 1011.3
20200329141000 59 27 6.0 10.0 0.00 0.00 0.00 58 1011.2
20200329140500 59 24 5.0 12.0 0.00 0.00 0.00 57 1011.1
20200329140000 59 1 6.0 15.0 0.00 0.00 0.00 58 1011.2
20200329135459 59 354 5.0 15.0 0.00 0.00 0.00 59 1011.2
20200329134959 59 354 6.0 18.0 0.00 0.00 0.00 60 1011.2
20200329134501 58 336 6.0 18.0 0.00 0.00 0.00 58 1011.1
20200329134000 58 329 6.0 18.0 0.00 0.00 0.00 59 1011.1
20200329133459 58 321 8.0 15.0 0.00 0.00 0.00 57 1011.1
20200329133001 59 313 8.0 15.0 0.00 0.00 0.00 56 1011.2
20200329132500 59 327 8.0 16.0 0.00 0.00 0.00 56 1011.1
20200329132001 59 341 7.0 16.0 0.00 0.00 0.00 58 1011.2
20200329131501 58 1 6.0 13.0 0.00 0.00 0.00 60 1011.3
20200329130959 58 15 5.0 12.0 0.00 0.00 0.00 62 1011.2
20200329130500 58 19 5.0 12.0 0.00 0.00 0.00 61 1011.2
20200329130001 57 40 5.0 12.0 0.00 0.00 0.00 61 1011.3
20200329125500 57 37 6.0 12.0 0.00 0.00 0.00 60 1011.4
20200329125000 58 9 6.0 15.0 0.00 0.00 0.00 60 1011.3
20200329124501 58 15 7.0 15.0 0.00 0.00 0.00 60 1011.4
20200329124000 58 24 7.0 14.0 0.00 0.00 0.00 60 1011.4
20200329123500 58 47 5.0 14.0 0.00 0.00 0.00 61 1011.4
20200329123001 58 53 3.0 12.0 0.00 0.00 0.00 63 1011.4
20200329122500 58 346 4.0 9.0 0.00 0.00 0.00 64 1011.4
20200329122001 58 341 4.0 9.0 0.00 0.00 0.00 65 1011.5
20200329121501 58 355 4.0 9.0 0.00 0.00 0.00 65 1011.5
20200329121001 57 359 4.0 10.0 0.00 0.00 0.00 65 1011.7
20200329120500 57 346 5.0 11.0 0.00 0.00 0.00 66 1011.8
20200329120001 57 13 6.0 11.0 0.00 0.00 0.00 66 1011.8
20200329115500 57 33 5.0 12.0 0.00 0.00 0.00 66 1011.8
20200329115000 57 6 5.0 12.0 0.00 0.00 0.00 67 1011.9
20200329114501 57 348 6.0 13.0 0.00 0.00 0.00 68 1011.8
20200329114000 57 18 7.0 14.0 0.00 0.00 0.00 68 1011.7
20200329113500 57 20 7.0 14.0 0.00 0.00 0.00 67 1011.9
20200329113000 57 343 7.0 13.0 0.00 0.00 0.00 68 1011.9
20200329112500 57 342 8.0 14.0 0.00 0.00 0.00 67 1011.9
20200329112000 57 2 8.0 14.0 0.00 0.00 0.00 67 1012.1
20200329111501 58 358 7.0 13.0 0.00 0.00 0.00 66 1012.1
20200329111001 58 351 7.0 13.0 0.00 0.00 0.00 65 1012.1
20200329110500 58 346 6.0 12.0 0.00 0.00 0.00 66 1012.1
20200329110001 58 354 5.0 12.0 0.00 0.00 0.00 66 1012.0
20200329105500 59 10 5.0 12.0 0.00 0.00 0.00 66 1011.9
20200329105000 59 33 5.0 12.0 0.00 0.00 0.00 66 1012.0
20200329104501 58 22 7.0 12.0 0.00 0.00 0.00 66 1012.0
20200329103959 59 8 7.0 13.0 0.00 0.00 0.00 65 1012.1
20200329103500 59 4 7.0 14.0 0.00 0.00 0.00 65 1012.0
20200329103000 59 27 8.0 15.0 0.00 0.00 0.00 65 1012.2
20200329102500 60 35 7.0 15.0 0.00 0.00 0.00 65 1012.0
20200329102000 59 357 5.0 14.0 0.00 0.00 0.00 66 1012.0
20200329101502 59 328 6.0 14.0 0.00 0.00 0.00 67 1012.0
20200329101000 59 336 6.0 14.0 0.00 0.00 0.00 67 1011.9
20200329100500 59 331 6.0 13.0 0.00 0.00 0.00 69 1011.9
20200329100001 59 313 6.0 14.0 0.00 0.00 0.00 67 1012.1
20200329095500 59 323 6.0 14.0 0.00 0.00 0.00 67 1012.1
20200329095000 59 320 8.0 14.0 0.00 0.00 0.00 68 1012.1
20200329094500 58 320 9.0 14.0 0.00 0.00 0.00 68 1012.1
20200329094000 58 330 9.0 15.0 0.00 0.00 0.00 67 1012.1
20200329093500 59 318 9.0 15.0 0.00 0.00 0.00 66 1012.2
20200329093001 60 306 7.0 15.0 0.00 0.00 0.00 66 1012.2
20200329092500 60 318 5.0 11.0 0.00 0.00 0.00 66 1012.1
20200329092000 59 325 5.0 11.0 0.00 0.00 0.00 69 1012.1
20200329091501 59 344 5.0 11.0 0.00 0.00 0.00 68 1012.1
20200329091000 59 337 5.0 15.0 0.00 0.00 0.00 68 1012.2
20200329090501 58 333 6.0 15.0 0.00 0.00 0.00 68 1012.2
20200329090001 58 346 7.0 14.0 0.00 0.00 0.00 68 1012.4
20200329085500 59 340 6.0 14.0 0.00 0.00 0.00 68 1012.2
20200329085000 59 313 6.0 13.0 0.00 0.00 0.00 66 1012.3
20200329084501 58 302 5.0 12.0 0.00 0.00 0.00 66 1012.3
20200329084000 58 300 5.0 12.0 0.00 0.00 0.00 68 1012.4
20200329083459 58 273 5.0 10.0 0.00 0.00 0.00 69 1012.3
20200329083001 57 270 4.0 10.0 0.00 0.00 0.00 69 1012.3
20200329082500 57 281 3.0 10.0 0.00 0.00 0.00 70 1012.2
20200329082000 57 290 2.0 10.0 0.00 0.00 0.00 72 1012.3
20200329081501 57 318 3.0 7.0 0.00 0.00 0.00 73 1012.3
20200329081001 57 300 3.0 11.0 0.00 0.00 0.00 73 1012.4
20200329080500 57 281 3.0 11.0 0.00 0.00 0.00 75 1012.5
20200329080001 56 270 4.0 9.0 0.00 0.00 0.00 75 1012.5
20200329075500 56 284 3.0 9.0 0.00 0.00 0.00 76 1012.4
20200329075000 56 331 1.0 5.0 0.00 0.00 0.00 79 1012.4
20200329074500 56 319 2.0 5.0 0.00 0.00 0.00 80 1012.4
20200329074000 56 246 2.0 8.0 0.00 0.00 0.00 81 1012.5
20200329073500 55 204 2.0 8.0 0.00 0.00 0.00 82 1012.4
20200329073000 55 237 2.0 6.0 0.00 0.00 0.00 83 1012.4
20200329072500 55 247 2.0 6.0 0.00 0.00 0.00 84 1012.5
20200329072000 54 257 2.0 5.0 0.00 0.00 0.00 85 1012.4
20200329071501 53 212 2.0 6.0 0.00 0.00 0.00 86 1012.4
20200329071000 53 197 2.0 6.0 0.00 0.00 0.00 87 1012.4
20200329070501 53 226 2.0 5.0 0.00 0.00 0.00 88 1012.4
20200329070001 53 237 2.0 5.0 0.00 0.00 0.00 89 1012.4
20200329065501 52 268 2.0 5.0 0.00 0.00 0.00 90 1012.3
20200329065000 52 279 2.0 5.0 0.00 0.00 0.00 90 1012.3
20200329064501 52 286 2.0 5.0 0.00 0.00 0.00 90 1012.3
20200329064000 51 291 1.0 5.0 0.00 0.00 0.00 91 1012.4
20200329063500 51 270 2.0 5.0 0.00 0.00 0.00 91 1012.4
20200329063001 51 248 2.0 7.0 0.00 0.00 0.00 91 1012.4
20200329062500 50 238 2.0 7.0 0.00 0.00 0.00 91 1012.4
20200329062000 50 252 2.0 6.0 0.00 0.00 0.00 91 1012.5
20200329061501 50 256 2.0 6.0 0.00 0.00 0.00 92 1012.5
20200329061000 50 255 2.0 6.0 0.00 0.00 0.00 92 1012.4
20200329060500 50 269 1.0 6.0 0.00 0.00 0.00 93 1012.4
20200329060001 49 285 2.0 5.0 0.00 0.00 0.00 93 1012.3
20200329055500 48 300 2.0 5.0 0.00 0.00 0.00 93 1012.4
20200329055000 48 300 2.0 5.0 0.00 0.00 0.00 93 1012.4
20200329054501 47 272 2.0 7.0 0.00 0.00 0.00 92 1012.3
20200329054000 47 260 3.0 7.0 0.00 0.00 0.00 92 1012.4
20200329053500 47 232 4.0 8.0 0.00 0.00 0.00 92 1012.3
20200329053001 46 210 5.0 9.0 0.00 0.00 0.00 92 1012.3
20200329052500 46 215 5.0 9.0 0.00 0.00 0.00 92 1012.4
20200329051959 46 223 5.0 8.0 0.00 0.00 0.00 91 1012.3
20200329051500 47 222 4.0 8.0 0.00 0.00 0.00 92 1012.3
20200329051000 47 215 3.0 7.0 0.00 0.00 0.00 92 1012.3
20200329050500 47 226 2.0 7.0 0.00 0.00 0.00 92 1012.2
20200329050001 46 245 2.0 6.0 0.00 0.00 0.00 92 1012.3
20200329045500 46 245 3.0 6.0 0.00 0.00 0.00 92 1012.4
20200329045000 46 243 2.0 6.0 0.00 0.00 0.00 92 1012.3
20200329044501 46 241 2.0 6.0 0.00 0.00 0.00 92 1012.2
20200329044000 46 256 2.0 6.0 0.00 0.00 0.00 92 1012.2
20200329043500 46 263 2.0 6.0 0.00 0.00 0.00 92 1012.3
20200329043001 46 263 2.0 6.0 0.00 0.00 0.00 92 1012.1
20200329042500 46 258 2.0 8.0 0.00 0.00 0.00 92 1012.2
20200329042000 46 264 3.0 8.0 0.00 0.00 0.00 92 1012.0
20200329041501 46 276 3.0 8.0 0.00 0.00 0.00 92 1012.1
20200329041000 46 272 3.0 7.0 0.00 0.00 0.00 92 1012.1
20200329040500 46 263 4.0 8.0 0.00 0.00 0.00 92 1012.2
20200329040000 46 267 4.0 9.0 0.00 0.00 0.00 92 1012.1
20200329035500 46 270 3.0 9.0 0.00 0.01 0.00 92 1012.0
20200329035001 46 274 2.0 8.0 0.00 0.01 0.00 92 1012.0
20200329034501 46 266 1.0 5.0 0.00 0.01 0.00 92 1012.0
20200329034000 46 241 1.0 3.0 0.00 0.01 0.00 91 1011.9
20200329033500 45 250 0.0 3.0 0.00 0.01 0.00 91 1011.9
20200329033001 46 263 0.0 4.0 0.00 0.01 0.00 91 1012.0
20200329032500 46 265 1.0 4.0 0.00 0.01 0.00 91 1011.9
20200329032000 46 258 0.0 4.0 0.00 0.01 0.00 91 1011.9
20200329031501 46 255 1.0 4.0 0.00 0.01 0.00 91 1011.9
20200329031001 46 269 1.0 4.0 0.00 0.01 0.00 91 1011.9
20200329030500 46 282 0.0 4.0 0.00 0.01 0.00 91 1011.9
20200329030001 46 291 0.0 2.0 0.00 0.01 0.00 91 1012.0
20200329025500 46 263 0.0 2.0 0.00 0.01 0.00 91 1011.9
20200329025000 46 248 0.0 2.0 0.00 0.01 0.00 91 1012.0
20200329024501 46 225 0.0 1.0 0.00 0.01 0.00 91 1012.1
20200329023959 47 221 0.0 2.0 0.00 0.01 0.00 91 1012.0
20200329023500 47 230 0.0 2.0 0.00 0.01 0.00 91 1011.9
20200329023001 47 240 0.0 3.0 0.00 0.01 0.00 91 1012.1
20200329022500 47 222 1.0 5.0 0.00 0.01 0.00 91 1012.1
20200329022000 47 215 2.0 5.0 0.00 0.01 0.00 91 1012.0
20200329021500 47 230 3.0 7.0 0.00 0.01 0.00 91 1012.1
20200329021000 47 242 2.0 7.0 0.00 0.01 0.00 91 1012.2
20200329020501 47 234 2.0 7.0 0.00 0.01 0.00 91 1012.2
20200329020000 47 257 2.0 7.0 0.00 0.01 0.00 91 1012.1
20200329015500 47 287 1.0 5.0 0.00 0.01 0.00 91 1012.3
20200329015000 47 270 1.0 5.0 0.00 0.01 0.00 91 1012.4
20200329014501 47 255 1.0 5.0 0.00 0.01 0.00 91 1012.4
20200329014001 47 230 1.0 6.0 0.00 0.01 0.00 91 1012.4
20200329013500 47 234 1.0 6.0 0.00 0.01 0.00 91 1012.3
20200329013001 47 230 1.0 6.0 0.00 0.01 0.00 91 1012.4
20200329012500 48 226 1.0 4.0 0.00 0.01 0.00 91 1012.4
20200329012001 48 232 1.0 4.0 0.00 0.01 0.00 91 1012.3
20200329011500 48 244 0.0 3.0 0.00 0.01 0.00 91 1012.3
20200329011000 48 268 1.0 4.0 0.00 0.01 0.00 91 1012.4
20200329010500 48 270 1.0 4.0 0.00 0.01 0.00 91 1012.4
20200329010000 48 270 1.0 3.0 0.00 0.01 0.00 91 1012.3
20200329005500 48 236 2.0 6.0 0.00 0.01 0.00 91 1012.4
20200329005000 48 247 2.0 5.0 0.00 0.01 0.00 91 1012.4
20200329004500 48 255 2.0 5.0 0.00 0.01 0.00 91 1012.4
20200329004001 48 260 1.0 5.0 0.00 0.01 0.00 91 1012.4
20200329003500 48 282 1.0 5.0 0.00 0.01 0.00 91 1012.4
20200329003001 48 288 1.0 5.0 0.00 0.01 0.00 91 1012.4
20200329002500 48 290 1.0 5.0 0.00 0.01 0.00 91 1012.3
20200329002000 48 282 1.0 4.0 0.00 0.01 0.00 91 1012.4
20200329001501 48 270 1.0 5.0 0.00 0.01 0.00 91 1012.5
20200329001000 48 270 1.0 5.0 0.00 0.01 0.00 91 1012.5
20200329000500 48 274 1.0 4.0 0.00 0.01 0.00 91 1012.5
20200329000001 48 267 1.0 4.0 0.00 0.01 0.00 91 1012.7
20200328235500 48 252 1.0 4.0 0.00 0.01 0.00 91 1012.8
20200328235000 48 241 1.0 4.0 0.00 0.01 0.00 91 1012.7
20200328234501 48 235 1.0 6.0 0.00 0.01 0.00 91 1012.7
20200328234000 48 276 2.0 7.0 0.00 0.01 0.00 91 1012.7
20200328233500 48 281 1.0 7.0 0.00 0.01 0.00 91 1012.9
20200328233001 48 248 1.0 4.0 0.00 0.01 0.00 91 1013.0
20200328232500 48 235 1.0 6.0 0.00 0.01 0.00 91 1012.9
20200328232000 48 240 1.0 6.0 0.00 0.01 0.00 91 1012.9
20200328231501 48 247 1.0 5.0 0.00 0.01 0.00 91 1013.2
20200328231000 47 244 1.0 5.0 0.00 0.01 0.00 91 1013.2
20200328230500 47 244 0.0 4.0 0.00 0.01 0.00 90 1013.2
20200328230000 47 236 0.0 3.0 0.00 0.01 0.00 90 1013.3
20200328225500 47 1 0.0 1.0 0.00 0.01 0.00 90 1013.3
20200328225001 47 53 0.0 1.0 0.00 0.01 0.00 90 1013.3
20200328224501 47 95 0.0 1.0 0.00 0.01 0.00 90 1013.3
20200328224000 47 153 0.0 1.0 0.00 0.01 0.00 90 1013.4
20200328223501 47 207 1.0 4.0 0.00 0.01 0.00 90 1013.3
20200328223001 47 221 2.0 5.0 0.00 0.01 0.00 90 1013.3
20200328222501 47 223 3.0 6.0 0.00 0.01 0.00 90 1013.4
20200328222000 48 213 4.0 6.0 0.00 0.01 0.00 90 1013.4
20200328221501 48 212 3.0 6.0 0.00 0.01 0.00 90 1013.3